Location: Warszawa
(52.2500°N, 21.0000°E)
Time: 20:54:22
(UTC+02:00)

Vanguard 2 - Pass Details

Date: 01 February 2023
Orbit: 553 x 2927 km, 32.9° (Epoch: 27 March)

Event Time Altitude Azimuth Distance (km) Brightness Sun altitude
Exits shadow 01:53:17 20° 146° (SSE) 4,494 11.2 -47.4°
Drops below altitude 10° 01:57:13 10° 135° (SE) 5,087 11.7 -46.9°
Sets 02:01:10 0° 127° (SE) 5,815 12.1 -46.5°
